Find Local Weather

World > North America > United States > Washington

Marblemount, Washington Regional Weather

Lat: 48.53N, Lon: 121.45W
Wx Zone: WAZ567
Feedback
Expires:201806201400;;829617
ASUS46 KSEW 201310
RWRWA 

WASHINGTON REGIONAL WEATHER ROUNDUP
NATIONAL WEATHER SERVICE SEATTLE WA
600 AM PDT WED JUN 20 2018

NOTE:"FAIR" INDICATES FEW OR NO CLOUDS BELOW 12,000 FEET WITH NO 
SIGNIFICANT WEATHER AND/OR OBSTRUCTIONS TO VISIBILITY.


WAZ019-023-024-040-567>569-201400-
CASCADE MOUNTAINS AND COLUMBIA GORGE
  
CITY           SKY/WX    TMP DP  RH WIND       PRES   REMARKS
STAMPEDE PASS  PTCLDY    59  49  69 CALM      30.13S                  
TROUTDALE, OR  PTCLDY    61  58  90 E3        29.94S                  
HOOD RIVER, OR MOSUNNY   61  54  77 CALM      30.00S                  
THE DALLES, OR CLEAR     60  52  74 CALM      29.99R                  
$$


SKY/WX - Weather  TMP - Temperature  DP - Dewpoint  RH - Relative Humidity
WIND - Wind Direction/Speed PRES - Barometric Pressure